Branson, MO

1:30 PM CDT on April 28, 2017 (GMT -0500)
Branson

Weather History for KBBG - December, 2012

Change the Weather History Date:

Monday, December 31, 2012

  Actual Average (KHRO) Record (KHRO)
Temperature  
Mean Temperature 34 °F -  
Max Temperature 35 °F 40 °F 79 °F (1951)
Min Temperature 32 °F 23 °F -2 °F (1976)
Degree Days  
Heating Degree Days 32    
Moisture  
Dew Point 31 °F    
Average Humidity 91    
Maximum Humidity 100    
Minimum Humidity 52    
Precipitation  
Precipitation 0.09 in - - ()
Sea Level Pressure  
Sea Level Pressure 30.11 in    
Wind  
Wind Speed 3 mph (SE)    
Max Wind Speed 8 mph    
Max Gust Speed -    
Visibility 3 miles    
Events Fog , Rain    
Averages and records for this station are not official NWS values.
T = Trace of Precipitation, MM = Missing Value Source: NWS Daily Summary

Daily Weather History Graph

Daily Weather History Graph

Search for Another Location

Airport or City:

Trip Planner

Search our weather history database for the weather conditions in past years. The results will help you decide how hot, cold, wet, or windy it might be!

Date:

Astronomy

Dec. 31, 2012 Rise Set
Actual Time 7:24 AM CST 5:07 PM CST
Civil Twilight 6:56 AM CST 5:36 PM CST
Nautical Twilight 6:23 AM CST 6:08 PM CST
Astronomical Twilight 5:52 AM CST 6:39 PM CST
Moon 8:32 PM CST (12/31) 9:12 AM CST (12/31)
Length of Visible Light 10h 40m
Length of Day
9h 42m
Waning Gibbous, 90% of the Moon is Illuminated
Dec 31
Waning Gibbous
Jan 4
Last Quarter
Jan 11
New
Jan 18
First Quarter
Jan 26
Full

Hourly Weather History & Observations

Time (CST) Temp. Windchill Dew Point Humidity Pressure Visibility Wind Dir Wind Speed Gust Speed Precip Events Conditions
12:15 AM 35.6 °F 32.8 °F 19.4 °F 52% 30.21 in 10.0 mi SE 3.5 mph - N/A   Overcast
12:35 AM 35.6 °F 32.8 °F 21.2 °F 56% 30.21 in 10.0 mi SSE 3.5 mph - N/A   Overcast
12:55 AM 35.6 °F - 21.2 °F 56% 30.24 in 10.0 mi Calm Calm - N/A   Overcast
1:15 AM 35.6 °F - 23.0 °F 60% 30.22 in 10.0 mi Calm Calm - N/A   Overcast
1:35 AM 35.6 °F - 23.0 °F 60% 30.22 in 10.0 mi Calm Calm - N/A   Overcast
1:55 AM 35.6 °F - 21.2 °F 56% 30.23 in 10.0 mi Calm Calm - N/A   Overcast
2:15 AM 35.6 °F 32.8 °F 24.8 °F 65% 30.22 in 7.0 mi SSE 3.5 mph - N/A Rain Light Rain
2:35 AM 35.6 °F 32.8 °F 26.6 °F 70% 30.22 in 5.0 mi SSE 3.5 mph - 0.01 in   Overcast
2:55 AM 33.8 °F 30.8 °F 28.4 °F 81% 30.22 in 4.0 mi SSE 3.5 mph - 0.02 in Rain Light Rain
3:15 AM 32.0 °F 28.7 °F 30.2 °F 93% 30.21 in 4.0 mi SE 3.5 mph - 0.01 in Rain Light Rain
3:35 AM 32.0 °F - 30.2 °F 93% 30.19 in 4.0 mi Calm Calm - 0.02 in Rain Light Rain
3:55 AM 32.0 °F 26.4 °F 30.2 °F 93% 30.19 in 4.0 mi SE 5.8 mph - 0.03 in   Overcast
4:15 AM 32.0 °F 28.7 °F 32.0 °F 100% 30.18 in 3.0 mi ESE 3.5 mph - N/A Rain Light Rain
4:35 AM 32.0 °F 28.7 °F 32.0 °F 100% 30.18 in 4.0 mi SSE 3.5 mph - 0.01 in Rain Light Rain
4:55 AM 32.0 °F 28.7 °F 32.0 °F 100% 30.18 in 3.0 mi SE 3.5 mph - 0.02 in   Mostly Cloudy
5:15 AM 32.0 °F - 32.0 °F 100% 30.19 in 3.0 mi Calm Calm - N/A   Overcast
5:35 AM 32.0 °F - 32.0 °F 100% 30.20 in 2.5 mi Calm Calm - 0.02 in   Overcast
6:51 AM 32.0 °F 26.4 °F 32.0 °F 100% 30.18 in 3.0 mi SE 5.8 mph - N/A Rain Light Rain
7:29 AM 32.0 °F 27.5 °F 32.0 °F 100% 30.17 in 2.0 mi ESE 4.6 mph - N/A Rain Light Rain
7:47 AM 32.0 °F 26.4 °F 32.0 °F 100% 30.15 in 1.0 mi ESE 5.8 mph - N/A Rain Light Rain
8:48 AM 32.0 °F 25.6 °F 32.0 °F 100% 30.15 in 2.0 mi SE 6.9 mph - N/A Rain Light Rain
10:46 AM 33.8 °F 27.0 °F 32.0 °F 93% 30.14 in 2.0 mi SE 8.1 mph - N/A Rain Light Rain
11:48 AM 33.8 °F 27.7 °F 33.8 °F 100% 30.11 in 2.0 mi ESE 6.9 mph - N/A Rain Light Rain
12:51 PM 33.8 °F 28.6 °F 32.0 °F 93% 30.07 in 2.0 mi SE 5.8 mph - N/A Rain Light Rain
1:45 PM 33.8 °F 28.6 °F 33.8 °F 100% 30.04 in 1.0 mi SE 5.8 mph - N/A Rain Light Rain
2:49 PM 35.6 °F 29.9 °F 35.6 °F 100% 30.02 in 2.0 mi SE 6.9 mph - N/A Rain Light Rain
3:45 PM 35.6 °F 29.9 °F 35.6 °F 100% 30.01 in 3.0 mi SE 6.9 mph - N/A   Overcast
4:50 PM 33.8 °F 28.6 °F 33.8 °F 100% 30.00 in 3.0 mi ESE 5.8 mph - N/A   Overcast
5:45 PM 35.6 °F 30.7 °F 35.6 °F 100% 30.00 in 6.0 mi SE 5.8 mph - N/A   Overcast
6:45 PM 35.6 °F 30.7 °F 35.6 °F 100% 30.00 in 2.0 mi ESE 5.8 mph - N/A   Overcast
7:55 PM 33.8 °F 28.6 °F 33.8 °F 100% 30.02 in 0.5 mi SE 5.8 mph - N/A Fog Fog
8:15 PM 33.8 °F - 33.8 °F 100% 30.01 in 0.2 mi Calm Calm - N/A Fog Fog
8:35 PM 33.8 °F 28.6 °F 33.8 °F 100% 30.01 in 0.2 mi ESE 5.8 mph - N/A Fog Fog
8:45 PM 33.8 °F 28.6 °F 33.8 °F 100% 30.01 in 0.2 mi ESE 5.8 mph - N/A Fog Fog
8:55 PM 33.8 °F 29.6 °F 33.8 °F 100% 30.01 in 0.2 mi ESE 4.6 mph - N/A Fog Fog
9:15 PM 33.8 °F - 33.8 °F 100% 30.02 in 0.2 mi Calm Calm - N/A Fog Fog
9:35 PM 33.8 °F - 33.8 °F 100% 30.02 in 0.5 mi Calm Calm - N/A Fog Fog
9:55 PM 33.8 °F - 33.8 °F 100% 30.03 in 0.2 mi Calm Calm - N/A Fog Fog
10:15 PM 33.8 °F - 33.8 °F 100% 30.03 in 0.2 mi Calm Calm - N/A Fog Fog
10:35 PM 33.8 °F - 33.8 °F 100% 30.04 in 0.2 mi Calm Calm - N/A Fog Fog
10:55 PM 33.8 °F - 33.8 °F 100% 30.04 in 0.2 mi Calm Calm - N/A Fog Fog
11:15 PM 33.8 °F - 33.8 °F 100% 30.04 in 0.5 mi Calm Calm - N/A Fog Fog
11:35 PM 33.8 °F - 33.8 °F 100% 30.03 in 0.5 mi Calm Calm - N/A Fog Fog
11:55 PM 33.8 °F - 33.8 °F 100% 30.04 in 0.2 mi Calm Calm - N/A Fog Fog